Location: LDNL
(36.4545°S, 141.6685°E)
Time: 19:00:39
(UTC+10:00)

A-11 Canister half - Pass Details

Date: 31 January 2022
Orbit: 1527 x 1682 km, 47.3° (Epoch: 20 May)

Event Time Altitude Azimuth Distance (km) Brightness Sun altitude
Rises 00:16:28 0° 286° (WNW) 4,936 11.8 -31.9°
Reaches altitude 10° 00:19:43 10° 282° (WNW) 3,950 11.2 -32.2°
Maximum altitude 00:29:46 60° 203° (SSW) 1,872 9.5 -33.0°
Drops below altitude 10° 00:39:40 10° 123° (ESE) 3,891 11.2 -33.7°
Sets 00:42:52 0° 119° (ESE) 4,859 11.7 -33.9°
